星链-34458 (STARLINK-34458)

导读 | 豆包AI

STARLINK-34458是美国SpaceX公司星链星座旗下,服务全球高速互联网接入的低轨卫星,于2025年6月13日发射。星链星座旨在为全球基础设施薄弱区域提供高速低延迟宽带服务,该卫星运行在近地轨道,助力星座持续扩容,提升全球网络覆盖与服务能力,推动太空互联网基础设施建设。

基本信息
目录编号:
64360
目录名称:
STARLINK-34458
国际标识:
2025-126S
轨道中心:
EARTH
卫星名称:
星链-34458
卫星全名:
星链-34458 (STARLINK-34458)
卫星状态:
在轨 (已飞行274 天)
发射日期:
2025-06-13 UTC
国别 :
美国 (US)
星等 :
--
轨道信息
数据来源 国际轨道数据
星历时间: 2026-03-14T13:49:03+0800
11小时前
查看轨道信息
半长轴: 6950.427km
偏心率: 0.0005224
轨道倾角: 70.003°
近地点辐角 279.222°
升交点赤经 22.982°
平近点角 80.835°
近地点: 568.659km
远地点: 575.921km
周期: 96.112分钟
每日圈数: 14.982546
详细信息
固有亮度:
5
最大亮度:
2.5
卫星平台:
Starlink V1.0
覆盖范围:
全球
运营商:
太空探索技术公司
运营商所在国:
美国
制造商(研发单位):
太空探索技术公司
制造商所在国:
美国
使用方式:
暂无
卫星简介
Starlink 计划是 SpaceX 推出的全球卫星互联网项目,通过发射低轨道卫星,为全球尤其是偏远地区提供高速、低延迟的互联网服务。自 2019 年起,Starlink 已部署数千颗卫星,旨在缩小全球数字鸿沟,推动互联网普及。该项目还为军事、航空等行业提供通信支持,带来广泛经济效益。
2D轨道图
3D轨道图
轨道高度分析图
轨道倾角分析图
轨道综合分析图
查看轨道综合分析图